Back to Top

Language: 

My Weather Underground Personal Weather Station Historical Data with Graphs...

Delerius Weather Station Historical Data
Daily Summary for November 1, 2017 Units:  Metric    English   Both
« Previous Day
Next Day »
Daily Weekly Monthly Yearly Custom
  High: Low: Average:
Temperature: 12.7 °C 8.6 °C 10.7 °C
Dew Point: 9.5 °C 6.7 °C 8.4 °C
Humidity: 93 % 79 % 86 %
Wind Speed: 17.7 km/h 0 km/h 5.3 km/h
Wind Gust: 24.1 km/h - -
Wind:- - WSW
Pressure: 1019.2 hPa 1013.4 hPa -
Precipitation: 0 mm    
Historical Graphs
 
 
Tabular Data for November 1, 2017
Time Temperature Dew Point Pressure Wind Wind Speed Wind Gust Humidity Rainfall Rate (Hourly) solar Conditions
00:03 10 °C 8.6 °C 1019.2 hPa Calm     91 % 0 mm 0 W/m2
00:08 10 °C 8.6 °C 1019.2 hPa Calm     91 % 0 mm 0 W/m2
00:13 10.1 °C 8.7 °C 1019.2 hPa Calm     91 % 0 mm 0 W/m2
00:18 10.1 °C 8.7 °C 1019.2 hPa Calm     91 % 0 mm 0 W/m2
00:23 10.1 °C 8.8 °C 1019.2 hPa Calm     92 % 0 mm 0 W/m2
00:28 10.1 °C 8.7 °C 1019.2 hPa SE 3.2 km/h 8 km/h 91 % 0 mm 0 W/m2
00:33 10.1 °C 8.7 °C 1019.2 hPa ENE 3.2 km/h 8 km/h 91 % 0 mm 0 W/m2
00:38 10.1 °C 8.8 °C 1019.2 hPa Calm   3.2 km/h 92 % 0 mm 0 W/m2
00:43 10.1 °C 8.8 °C 1019.2 hPa Calm     92 % 0 mm 0 W/m2
00:48 10 °C 8.8 °C 1019.2 hPa ESE 1.6 km/h 4.8 km/h 92 % 0 mm 0 W/m2
00:53 10 °C 8.8 °C 1019.2 hPa ESE 1.6 km/h 6.4 km/h 92 % 0 mm 0 W/m2
00:58 10 °C 8.8 °C 1018.8 hPa NE 3.2 km/h 6.4 km/h 92 % 0 mm 0 W/m2
01:03 10 °C 8.8 °C 1018.8 hPa NNE 6.4 km/h 8 km/h 92 % 0 mm 0 W/m2
01:08 10.1 °C 8.8 °C 1019.2 hPa Calm     92 % 0 mm 0 W/m2
01:13 10.1 °C 8.8 °C 1018.8 hPa Calm     92 % 0 mm 0 W/m2
01:18 10.1 °C 8.8 °C 1018.8 hPa Calm     92 % 0 mm 0 W/m2
01:23 10 °C 8.8 °C 1018.8 hPa NNE 1.6 km/h 3.2 km/h 92 % 0 mm 0 W/m2
01:28 9.9 °C 8.7 °C 1018.8 hPa Calm     92 % 0 mm 0 W/m2
01:33 9.9 °C 8.7 °C 1018.8 hPa Calm     92 % 0 mm 0 W/m2
01:38 9.9 °C 8.7 °C 1018.8 hPa Calm   3.2 km/h 92 % 0 mm 0 W/m2
01:43 9.8 °C 8.6 °C 1018.5 hPa Calm     92 % 0 mm 0 W/m2
01:48 9.8 °C 8.6 °C 1018.5 hPa Calm     92 % 0 mm 0 W/m2
01:53 9.8 °C 8.6 °C 1018.5 hPa Calm     92 % 0 mm 0 W/m2
01:58 9.8 °C 8.6 °C 1018.5 hPa Calm   1.6 km/h 92 % 0 mm 0 W/m2
02:03 9.8 °C 8.6 °C 1018.5 hPa NNE 3.2 km/h 6.4 km/h 92 % 0 mm 0 W/m2
02:08 9.8 °C 8.7 °C 1018.5 hPa Calm     93 % 0 mm 0 W/m2
02:14 9.7 °C 8.6 °C 1018.5 hPa Calm     93 % 0 mm 0 W/m2
02:19 9.7 °C 8.6 °C 1018.5 hPa Calm     93 % 0 mm 0 W/m2
02:24 9.8 °C 8.7 °C 1018.5 hPa Calm     93 % 0 mm 0 W/m2
02:29 9.7 °C 8.6 °C 1018.5 hPa Calm     93 % 0 mm 0 W/m2
02:34 9.8 °C 8.7 °C 1018.2 hPa Calm     93 % 0 mm 0 W/m2
02:39 9.8 °C 8.7 °C 1018.5 hPa Calm     93 % 0 mm 0 W/m2
02:44 9.8 °C 8.7 °C 1018.2 hPa ESE 1.6 km/h 6.4 km/h 93 % 0 mm 0 W/m2
02:49 9.7 °C 8.6 °C 1018.2 hPa Calm     93 % 0 mm 0 W/m2
02:54 9.7 °C 8.6 °C 1018.2 hPa SE 1.6 km/h 6.4 km/h 93 % 0 mm 0 W/m2
02:59 9.7 °C 8.6 °C 1018.2 hPa Calm   3.2 km/h 93 % 0 mm 0 W/m2
03:04 9.7 °C 8.6 °C 1018.2 hPa SE 3.2 km/h 8 km/h 93 % 0 mm 0 W/m2
03:09 9.8 °C 8.7 °C 1018.2 hPa Calm   3.2 km/h 93 % 0 mm 0 W/m2
03:14 9.8 °C 8.7 °C 1018.2 hPa Calm     93 % 0 mm 0 W/m2
03:21 9.8 °C 8.7 °C 1018.2 hPa Calm     93 % 0 mm 0 W/m2
03:23 9.8 °C 8.7 °C 1018.2 hPa Calm     93 % 0 mm 0 W/m2
03:27 9.9 °C 8.8 °C 1018.2 hPa ENE 1.6 km/h 3.2 km/h 93 % 0 mm 0 W/m2
03:28 9.9 °C 8.8 °C 1018.2 hPa ENE 1.6 km/h 3.2 km/h 93 % 0 mm 0 W/m2
03:32 9.9 °C 8.8 °C 1017.8 hPa Calm     93 % 0 mm 0 W/m2
03:37 9.9 °C 8.8 °C 1017.8 hPa North 1.6 km/h 6.4 km/h 93 % 0 mm 0 W/m2
03:42 9.9 °C 8.7 °C 1017.8 hPa Calm   3.2 km/h 92 % 0 mm 0 W/m2
03:47 9.9 °C 8.7 °C 1017.8 hPa Calm     92 % 0 mm 0 W/m2
03:53 9.9 °C 8.7 °C 1017.8 hPa Calm     92 % 0 mm 0 W/m2
03:58 9.9 °C 8.7 °C 1017.8 hPa Calm   3.2 km/h 92 % 0 mm 0 W/m2
04:03 9.9 °C 8.7 °C 1017.8 hPa Calm     92 % 0 mm 0 W/m2
04:08 9.9 °C 8.8 °C 1017.8 hPa Calm     93 % 0 mm 0 W/m2
04:13 9.8 °C 8.7 °C 1017.8 hPa Calm     93 % 0 mm 0 W/m2
04:18 9.8 °C 8.7 °C 1017.5 hPa Calm     93 % 0 mm 0 W/m2
04:23 9.8 °C 8.7 °C 1017.5 hPa Calm     93 % 0 mm 0 W/m2
04:28 9.7 °C 8.6 °C 1017.5 hPa Calm   1.6 km/h 93 % 0 mm 0 W/m2
04:33 9.7 °C 8.6 °C 1017.5 hPa Calm   1.6 km/h 93 % 0 mm 0 W/m2
04:38 9.7 °C 8.6 °C 1017.5 hPa Calm   1.6 km/h 93 % 0 mm 0 W/m2
04:43 9.6 °C 8.5 °C 1017.5 hPa Calm   4.8 km/h 93 % 0 mm 0 W/m2
04:48 9.6 °C 8.5 °C 1017.5 hPa Calm     93 % 0 mm 0 W/m2
04:53 9.6 °C 8.5 °C 1017.5 hPa Calm     93 % 0 mm 0 W/m2
04:58 9.5 °C 8.3 °C 1017.5 hPa WNW 1.6 km/h 8 km/h 92 % 0 mm 0 W/m2
05:03 9.4 °C 8.2 °C 1017.5 hPa Calm     92 % 0 mm 0 W/m2
05:08 9.3 °C 7.9 °C 1017.5 hPa Calm   1.6 km/h 91 % 0 mm 0 W/m2
05:13 9.1 °C 7.4 °C 1017.5 hPa NNW 4.8 km/h 9.7 km/h 89 % 0 mm 0 W/m2
05:18 9.2 °C 7.2 °C 1017.5 hPa NW 8 km/h 14.5 km/h 87 % 0 mm 0 W/m2
05:23 9.5 °C 6.8 °C 1017.5 hPa WNW 6.4 km/h 12.9 km/h 83 % 0 mm 0 W/m2
05:28 9.8 °C 6.7 °C 1017.2 hPa WNW 8 km/h 9.7 km/h 81 % 0 mm 0 W/m2
05:33 10.1 °C 6.8 °C 1017.2 hPa WNW 3.2 km/h 8 km/h 80 % 0 mm 0 W/m2
05:38 10.2 °C 6.7 °C 1017.2 hPa WNW 1.6 km/h 6.4 km/h 79 % 0 mm 0 W/m2
05:43 10.3 °C 7.3 °C 1017.2 hPa Calm     82 % 0 mm 0 W/m2
05:48 10.3 °C 7.3 °C 1017.2 hPa Calm     82 % 0 mm 0 W/m2
05:53 10.2 °C 7.4 °C 1017.2 hPa Calm   3.2 km/h 83 % 0 mm 0 W/m2
05:58 10.1 °C 7.3 °C 1017.2 hPa Calm     83 % 0 mm 0 W/m2
06:03 10.1 °C 7.5 °C 1017.2 hPa Calm     84 % 0 mm 0 W/m2
06:08 9.9 °C 7.3 °C 1017.2 hPa Calm     84 % 0 mm 0 W/m2
06:13 9.8 °C 7.4 °C 1017.2 hPa Calm   1.6 km/h 85 % 0 mm 0 W/m2
06:18 9.7 °C 7.3 °C 1017.2 hPa Calm     85 % 0 mm 0 W/m2
06:23 9.7 °C 7.4 °C 1017.5 hPa Calm     86 % 0 mm 0 W/m2
06:28 9.6 °C 7.4 °C 1017.5 hPa Calm     86 % 0 mm 0 W/m2
06:33 9.5 °C 7.3 °C 1017.5 hPa Calm     86 % 0 mm 0 W/m2
06:38 9.4 °C 7.2 °C 1017.5 hPa Calm     86 % 0 mm 0 W/m2
06:43 9.4 °C 7.3 °C 1017.5 hPa Calm   1.6 km/h 87 % 0 mm 0 W/m2
06:48 9.3 °C 7.4 °C 1017.5 hPa WNW 1.6 km/h 9.7 km/h 88 % 0 mm 0 W/m2
06:53 9.2 °C 7.3 °C 1017.5 hPa WNW 4.8 km/h 9.7 km/h 88 % 0 mm 0 W/m2
06:58 9.2 °C 7.2 °C 1017.5 hPa West 8 km/h 12.9 km/h 87 % 0 mm 0 W/m2
07:03 9.4 °C 7.2 °C 1017.5 hPa WNW 11.3 km/h 19.3 km/h 86 % 0 mm 5 W/m2
07:08 9.8 °C 7.2 °C 1017.5 hPa WNW 11.3 km/h 19.3 km/h 84 % 0 mm 5 W/m2
07:13 10.3 °C 7.6 °C 1017.8 hPa WNW 14.5 km/h 20.9 km/h 83 % 0 mm 9 W/m2
07:18 10.5 °C 7.6 °C 1017.8 hPa WNW 16.1 km/h 20.9 km/h 82 % 0 mm 12 W/m2
07:23 10.7 °C 7.8 °C 1017.8 hPa WNW 12.9 km/h 19.3 km/h 82 % 0 mm 14 W/m2
07:29 10.7 °C 7.8 °C 1018.2 hPa WNW 11.3 km/h 17.7 km/h 82 % 0 mm 18 W/m2
07:34 10.7 °C 7.9 °C 1018.2 hPa WNW 11.3 km/h 17.7 km/h 83 % 0 mm 23 W/m2
07:39 10.7 °C 7.9 °C 1017.8 hPa West 11.3 km/h 16.1 km/h 83 % 0 mm 28 W/m2
07:44 10.6 °C 8 °C 1017.8 hPa WNW 12.9 km/h 17.7 km/h 84 % 0 mm 32 W/m2
07:49 10.6 °C 8 °C 1017.8 hPa West 14.5 km/h 19.3 km/h 84 % 0 mm 35 W/m2
07:54 10.5 °C 7.9 °C 1017.8 hPa West 14.5 km/h 19.3 km/h 84 % 0 mm 40 W/m2
07:59 10.5 °C 7.9 °C 1017.8 hPa West 11.3 km/h 16.1 km/h 84 % 0 mm 53 W/m2
08:04 10.4 °C 8 °C 1017.8 hPa West 9.7 km/h 17.7 km/h 85 % 0 mm 67 W/m2
08:09 10.5 °C 8.1 °C 1017.8 hPa WNW 9.7 km/h 14.5 km/h 85 % 0 mm 67 W/m2
08:14 10.5 °C 8.1 °C 1017.8 hPa West 9.7 km/h 12.9 km/h 85 % 0 mm 79 W/m2
08:19 10.6 °C 8.2 °C 1017.8 hPa West 9.7 km/h 14.5 km/h 85 % 0 mm 86 W/m2
08:24 10.6 °C 8.2 °C 1017.8 hPa West 6.4 km/h 12.9 km/h 85 % 0 mm 97 W/m2
08:29 10.7 °C 8.3 °C 1017.8 hPa West 3.2 km/h 8 km/h 85 % 0 mm 149 W/m2
08:34 10.7 °C 8.3 °C 1017.8 hPa West 3.2 km/h 8 km/h 85 % 0 mm 174 W/m2
08:39 10.9 °C 8.5 °C 1017.8 hPa West 4.8 km/h 9.7 km/h 85 % 0 mm 179 W/m2
08:44 11.1 °C 8.7 °C 1017.8 hPa West 8 km/h 12.9 km/h 85 % 0 mm 197 W/m2
08:49 11.3 °C 8.9 °C 1017.8 hPa West 9.7 km/h 14.5 km/h 85 % 0 mm 141 W/m2
08:54 11.4 °C 8.8 °C 1017.8 hPa WNW 8 km/h 16.1 km/h 84 % 0 mm 118 W/m2
08:59 11.4 °C 8.6 °C 1017.8 hPa West 9.7 km/h 12.9 km/h 83 % 0 mm 107 W/m2
09:04 11.4 °C 8.6 °C 1017.8 hPa West 11.3 km/h 19.3 km/h 83 % 0 mm 100 W/m2
09:09 11.5 °C 8.7 °C 1017.8 hPa West 14.5 km/h 22.5 km/h 83 % 0 mm 104 W/m2
09:14 11.5 °C 8.7 °C 1017.8 hPa West 11.3 km/h 17.7 km/h 83 % 0 mm 105 W/m2
09:19 11.5 °C 8.7 °C 1017.8 hPa West 9.7 km/h 17.7 km/h 83 % 0 mm 102 W/m2
09:24 11.6 °C 8.8 °C 1017.8 hPa West 11.3 km/h 16.1 km/h 83 % 0 mm 95 W/m2
09:29 11.6 °C 8.8 °C 1017.8 hPa West 8 km/h 14.5 km/h 83 % 0 mm 88 W/m2
09:34 11.6 °C 8.8 °C 1017.8 hPa West 9.7 km/h 12.9 km/h 83 % 0 mm 79 W/m2
09:39 11.6 °C 8.8 °C 1017.8 hPa West 9.7 km/h 12.9 km/h 83 % 0 mm 81 W/m2
09:44 11.6 °C 8.8 °C 1017.8 hPa WNW 6.4 km/h 12.9 km/h 83 % 0 mm 81 W/m2
09:49 11.6 °C 8.8 °C 1017.5 hPa West 8 km/h 12.9 km/h 83 % 0 mm 86 W/m2
09:54 11.7 °C 8.9 °C 1017.5 hPa West 6.4 km/h 16.1 km/h 83 % 0 mm 98 W/m2
09:59 11.7 °C 8.7 °C 1017.5 hPa West 9.7 km/h 16.1 km/h 82 % 0 mm 105 W/m2
10:04 11.8 °C 8.8 °C 1017.5 hPa West 8 km/h 16.1 km/h 82 % 0 mm 114 W/m2
10:09 11.9 °C 8.9 °C 1017.5 hPa WSW 11.3 km/h 17.7 km/h 82 % 0 mm 123 W/m2
10:14 11.9 °C 8.7 °C 1017.5 hPa WSW 11.3 km/h 17.7 km/h 81 % 0 mm 127 W/m2
10:19 12.1 °C 8.9 °C 1017.5 hPa West 9.7 km/h 16.1 km/h 81 % 0 mm 118 W/m2
10:24 12.1 °C 8.9 °C 1017.5 hPa WSW 12.9 km/h 17.7 km/h 81 % 0 mm 111 W/m2
10:29 12.2 °C 8.8 °C 1017.2 hPa WSW 11.3 km/h 19.3 km/h 80 % 0 mm 107 W/m2
10:34 12.2 °C 8.8 °C 1017.2 hPa West 9.7 km/h 14.5 km/h 80 % 0 mm 104 W/m2
10:39 12.2 °C 8.8 °C 1017.5 hPa WSW 9.7 km/h 19.3 km/h 80 % 0 mm 102 W/m2
10:45 12.2 °C 8.8 °C 1017.5 hPa WSW 11.3 km/h 16.1 km/h 80 % 0 mm 107 W/m2
10:50 12.3 °C 8.9 °C 1017.5 hPa WSW 11.3 km/h 16.1 km/h 80 % 0 mm 111 W/m2
10:55 12.3 °C 8.9 °C 1017.5 hPa WSW 14.5 km/h 20.9 km/h 80 % 0 mm 120 W/m2
11:00 12.3 °C 8.9 °C 1017.2 hPa WSW 11.3 km/h 22.5 km/h 80 % 0 mm 123 W/m2
11:05 12.4 °C 8.8 °C 1017.2 hPa WSW 12.9 km/h 19.3 km/h 79 % 0 mm 121 W/m2
11:10 12.4 °C 8.8 °C 1017.2 hPa WSW 12.9 km/h 19.3 km/h 79 % 0 mm 125 W/m2
11:15 12.4 °C 8.8 °C 1017.2 hPa WSW 12.9 km/h 19.3 km/h 79 % 0 mm 128 W/m2
11:20 12.5 °C 9.2 °C 1017.2 hPa West 9.7 km/h 16.1 km/h 80 % 0 mm 132 W/m2
11:25 12.5 °C 8.9 °C 1017.2 hPa WSW 8 km/h 14.5 km/h 79 % 0 mm 137 W/m2
11:30 12.5 °C 9.2 °C 1017.2 hPa West 11.3 km/h 20.9 km/h 80 % 0 mm 149 W/m2
11:35 12.6 °C 9.2 °C 1017.2 hPa West 8 km/h 12.9 km/h 80 % 0 mm 167 W/m2
11:40 12.6 °C 9.4 °C 1016.8 hPa WNW 8 km/h 12.9 km/h 81 % 0 mm 179 W/m2
11:45 12.7 °C 9.5 °C 1016.8 hPa West 11.3 km/h 20.9 km/h 81 % 0 mm 183 W/m2
11:50 12.7 °C 9.3 °C 1016.8 hPa West 12.9 km/h 19.3 km/h 80 % 0 mm 176 W/m2
11:55 12.6 °C 9.2 °C 1016.8 hPa West 14.5 km/h 22.5 km/h 80 % 0 mm 169 W/m2
12:00 12.6 °C 9.2 °C 1016.8 hPa West 12.9 km/h 19.3 km/h 80 % 0 mm 162 W/m2
12:05 12.7 °C 9.3 °C 1016.5 hPa West 11.3 km/h 16.1 km/h 80 % 0 mm 156 W/m2
12:10 12.7 °C 9.3 °C 1016.5 hPa WNW 16.1 km/h 22.5 km/h 80 % 0 mm 171 W/m2
12:15 12.7 °C 9.3 °C 1016.5 hPa WNW 16.1 km/h 24.1 km/h 80 % 0 mm 181 W/m2
12:20 12.7 °C 9.3 °C 1016.5 hPa WNW 16.1 km/h 22.5 km/h 80 % 0 mm 169 W/m2
12:25 12.7 °C 9.3 °C 1016.1 hPa West 14.5 km/h 19.3 km/h 80 % 0 mm 141 W/m2
12:30 12.7 °C 9.3 °C 1016.1 hPa WNW 12.9 km/h 20.9 km/h 80 % 0 mm 111 W/m2
12:35 12.7 °C 9.3 °C 1016.1 hPa WNW 14.5 km/h 20.9 km/h 80 % 0 mm 97 W/m2
12:40 12.7 °C 9.3 °C 1016.1 hPa West 12.9 km/h 16.1 km/h 80 % 0 mm 95 W/m2
12:45 12.6 °C 9.2 °C 1016.1 hPa WNW 14.5 km/h 20.9 km/h 80 % 0 mm 104 W/m2
12:50 12.7 °C 9.3 °C 1016.1 hPa WNW 14.5 km/h 20.9 km/h 80 % 0 mm 118 W/m2
12:55 12.7 °C 9.3 °C 1016.1 hPa WNW 14.5 km/h 20.9 km/h 80 % 0 mm 132 W/m2
13:00 12.7 °C 9.3 °C 1015.8 hPa WNW 17.7 km/h 24.1 km/h 80 % 0 mm 111 W/m2
13:05 12.7 °C 9.3 °C 1015.8 hPa West 14.5 km/h 24.1 km/h 80 % 0 mm 100 W/m2
13:10 12.7 °C 9.3 °C 1015.8 hPa West 14.5 km/h 20.9 km/h 80 % 0 mm 100 W/m2
13:15 12.6 °C 9.2 °C 1015.8 hPa West 12.9 km/h 20.9 km/h 80 % 0 mm 98 W/m2
13:20 12.6 °C 9.2 °C 1015.8 hPa West 16.1 km/h 22.5 km/h 80 % 0 mm 100 W/m2
13:25 12.6 °C 9.4 °C 1015.5 hPa West 12.9 km/h 22.5 km/h 81 % 0 mm 98 W/m2
13:30 12.6 °C 9.4 °C 1015.5 hPa West 12.9 km/h 22.5 km/h 81 % 0 mm 93 W/m2
13:36 12.6 °C 9.4 °C 1015.5 hPa West 11.3 km/h 19.3 km/h 81 % 0 mm 90 W/m2
13:41 12.5 °C 9.3 °C 1015.5 hPa WNW 11.3 km/h 19.3 km/h 81 % 0 mm 91 W/m2
13:46 12.5 °C 9.3 °C 1015.1 hPa West 11.3 km/h 17.7 km/h 81 % 0 mm 97 W/m2
13:51 12.5 °C 9.3 °C 1015.1 hPa West 6.4 km/h 11.3 km/h 81 % 0 mm 90 W/m2
13:56 12.5 °C 9.3 °C 1015.1 hPa West 8 km/h 14.5 km/h 81 % 0 mm 81 W/m2
14:01 12.5 °C 9.3 °C 1015.1 hPa West 6.4 km/h 12.9 km/h 81 % 0 mm 76 W/m2
14:06 12.5 °C 9.3 °C 1015.5 hPa Calm   3.2 km/h 81 % 0 mm 69 W/m2
14:11 12.5 °C 9.3 °C 1015.5 hPa West 1.6 km/h 3.2 km/h 81 % 0 mm 56 W/m2
14:16 12.5 °C 9.3 °C 1015.5 hPa Calm     81 % 0 mm 58 W/m2
14:21 12.5 °C 9.3 °C 1015.5 hPa Calm   1.6 km/h 81 % 0 mm 51 W/m2
14:26 12.5 °C 9.3 °C 1015.1 hPa Calm     81 % 0 mm 47 W/m2
14:31 12.5 °C 9.3 °C 1015.1 hPa Calm   3.2 km/h 81 % 0 mm 49 W/m2
14:36 12.4 °C 9.2 °C 1015.1 hPa Calm   1.6 km/h 81 % 0 mm 56 W/m2
14:41 12.4 °C 9.2 °C 1015.5 hPa West 1.6 km/h 3.2 km/h 81 % 0 mm 58 W/m2
14:46 12.4 °C 9.4 °C 1015.5 hPa Calm   3.2 km/h 82 % 0 mm 58 W/m2
14:51 12.4 °C 9.4 °C 1015.5 hPa NW 3.2 km/h 9.7 km/h 82 % 0 mm 63 W/m2
14:56 12.4 °C 9.2 °C 1015.5 hPa West 3.2 km/h 11.3 km/h 81 % 0 mm 67 W/m2
15:01 12.4 °C 9.2 °C 1015.5 hPa West 4.8 km/h 9.7 km/h 81 % 0 mm 65 W/m2
15:06 12.4 °C 9.2 °C 1015.1 hPa WSW 4.8 km/h 9.7 km/h 81 % 0 mm 56 W/m2
15:11 12.4 °C 9.2 °C 1015.1 hPa WSW 8 km/h 12.9 km/h 81 % 0 mm 54 W/m2
15:16 12.4 °C 9.2 °C 1015.1 hPa WSW 9.7 km/h 14.5 km/h 81 % 0 mm 65 W/m2
15:21 12.4 °C 9.2 °C 1015.1 hPa West 9.7 km/h 16.1 km/h 81 % 0 mm 79 W/m2
15:26 12.5 °C 9.3 °C 1015.1 hPa WSW 11.3 km/h 14.5 km/h 81 % 0 mm 77 W/m2
15:31 12.5 °C 9.3 °C 1014.8 hPa WSW 9.7 km/h 14.5 km/h 81 % 0 mm 69 W/m2
15:36 12.5 °C 9.3 °C 1015.1 hPa West 8 km/h 14.5 km/h 81 % 0 mm 63 W/m2
15:41 12.5 °C 9.3 °C 1015.1 hPa West 6.4 km/h 12.9 km/h 81 % 0 mm 60 W/m2
15:46 12.5 °C 9.3 °C 1015.1 hPa West 8 km/h 12.9 km/h 81 % 0 mm 53 W/m2
15:51 12.4 °C 9.2 °C 1014.8 hPa West 6.4 km/h 9.7 km/h 81 % 0 mm 51 W/m2
15:56 12.5 °C 9.3 °C 1014.8 hPa West 1.6 km/h 8 km/h 81 % 0 mm 44 W/m2
16:01 12.4 °C 9.2 °C 1014.8 hPa West 3.2 km/h 8 km/h 81 % 0 mm 40 W/m2
16:06 12.4 °C 9.2 °C 1014.8 hPa West 6.4 km/h 11.3 km/h 81 % 0 mm 33 W/m2
16:11 12.4 °C 9.2 °C 1014.8 hPa West 1.6 km/h 6.4 km/h 81 % 0 mm 30 W/m2
16:16 12.3 °C 9.1 °C 1014.8 hPa Calm   1.6 km/h 81 % 0 mm 25 W/m2
16:21 12.2 °C 9.2 °C 1015.1 hPa Calm     82 % 0 mm 14 W/m2
16:26 12.1 °C 9.1 °C 1015.1 hPa Calm     82 % 0 mm 11 W/m2
16:31 12.1 °C 9.1 °C 1014.8 hPa Calm   1.6 km/h 82 % 0 mm 9 W/m2
16:36 11.9 °C 9.1 °C 1014.8 hPa Calm   6.4 km/h 83 % 0 mm 7 W/m2
16:41 11.9 °C 9.1 °C 1014.8 hPa WSW 6.4 km/h 9.7 km/h 83 % 0 mm 5 W/m2
16:46 11.8 °C 9 °C 1014.8 hPa West 1.6 km/h 6.4 km/h 83 % 0 mm 0 W/m2
16:51 11.8 °C 9 °C 1014.8 hPa West 6.4 km/h 11.3 km/h 83 % 0 mm 0 W/m2
16:56 11.7 °C 8.9 °C 1014.8 hPa West 6.4 km/h 11.3 km/h 83 % 0 mm 0 W/m2
17:01 11.7 °C 8.9 °C 1014.8 hPa West 4.8 km/h 11.3 km/h 83 % 0 mm 0 W/m2
17:06 11.6 °C 8.8 °C 1014.8 hPa West 4.8 km/h 9.7 km/h 83 % 0 mm 0 W/m2
17:11 11.6 °C 8.8 °C 1014.8 hPa West 4.8 km/h 9.7 km/h 83 % 0 mm 0 W/m2
17:17 11.5 °C 8.9 °C 1014.4 hPa WSW 6.4 km/h 9.7 km/h 84 % 0 mm 0 W/m2
17:22 11.4 °C 8.8 °C 1014.4 hPa WSW 12.9 km/h 22.5 km/h 84 % 0 mm 0 W/m2
17:27 11.4 °C 8.6 °C 1014.4 hPa West 8 km/h 14.5 km/h 83 % 0 mm 0 W/m2
17:32 11.4 °C 8.8 °C 1014.4 hPa West 4.8 km/h 11.3 km/h 84 % 0 mm 0 W/m2
17:37 11.4 °C 8.8 °C 1014.4 hPa West 8 km/h 14.5 km/h 84 % 0 mm 0 W/m2
17:42 11.4 °C 8.8 °C 1014.4 hPa West 8 km/h 12.9 km/h 84 % 0 mm 0 W/m2
17:47 11.3 °C 8.7 °C 1014.4 hPa WSW 4.8 km/h 11.3 km/h 84 % 0 mm 0 W/m2
17:52 11.3 °C 8.7 °C 1014.8 hPa West 1.6 km/h 6.4 km/h 84 % 0 mm 0 W/m2
17:57 11.2 °C 8.6 °C 1014.8 hPa Calm     84 % 0 mm 0 W/m2
18:02 11.1 °C 8.5 °C 1014.8 hPa Calm     84 % 0 mm 0 W/m2
18:07 10.9 °C 8.3 °C 1014.8 hPa Calm   3.2 km/h 84 % 0 mm 0 W/m2
18:12 10.8 °C 8.4 °C 1014.8 hPa West 1.6 km/h 3.2 km/h 85 % 0 mm 0 W/m2
18:17 10.7 °C 8.3 °C 1014.8 hPa West 1.6 km/h 8 km/h 85 % 0 mm 0 W/m2
18:22 10.6 °C 8.2 °C 1014.8 hPa Calm     85 % 0 mm 0 W/m2
18:27 10.4 °C 8.2 °C 1014.8 hPa Calm     86 % 0 mm 0 W/m2
18:32 10.3 °C 8.1 °C 1014.8 hPa Calm     86 % 0 mm 0 W/m2
18:37 10.2 °C 7.9 °C 1014.8 hPa West 3.2 km/h 6.4 km/h 86 % 0 mm 0 W/m2
18:42 10.1 °C 8.1 °C 1014.4 hPa West 8 km/h 11.3 km/h 87 % 0 mm 0 W/m2
18:47 9.9 °C 7.8 °C 1014.4 hPa WNW 8 km/h 9.7 km/h 87 % 0 mm 0 W/m2
18:52 9.9 °C 8 °C 1014.4 hPa West 6.4 km/h 11.3 km/h 88 % 0 mm 0 W/m2
18:57 9.8 °C 7.9 °C 1014.4 hPa NW 3.2 km/h 8 km/h 88 % 0 mm 0 W/m2
19:02 9.7 °C 7.8 °C 1014.8 hPa Calm   3.2 km/h 88 % 0 mm 0 W/m2
19:07 9.7 °C 7.8 °C 1014.4 hPa WNW 3.2 km/h 9.7 km/h 88 % 0 mm 0 W/m2
19:12 9.6 °C 7.7 °C 1014.4 hPa WNW 1.6 km/h 3.2 km/h 88 % 0 mm 0 W/m2
19:17 9.5 °C 7.6 °C 1014.4 hPa Calm     88 % 0 mm 0 W/m2
19:23 9.4 °C 7.7 °C 1014.4 hPa NW 1.6 km/h 1.6 km/h 89 % 0 mm 0 W/m2
19:28 9.3 °C 7.6 °C 1014.4 hPa Calm     89 % 0 mm 0 W/m2
19:33 9.2 °C 7.5 °C 1014.4 hPa Calm     89 % 0 mm 0 W/m2
19:38 9.1 °C 7.4 °C 1014.4 hPa Calm     89 % 0 mm 0 W/m2
19:43 8.9 °C 7.2 °C 1014.4 hPa Calm     89 % 0 mm 0 W/m2
19:48 8.8 °C 7.2 °C 1014.4 hPa Calm   3.2 km/h 90 % 0 mm 0 W/m2
19:53 8.8 °C 7.2 °C 1014.4 hPa Calm     90 % 0 mm 0 W/m2
19:58 8.8 °C 7.4 °C 1014.4 hPa Calm     91 % 0 mm 0 W/m2
20:03 8.9 °C 7.5 °C 1014.4 hPa Calm   1.6 km/h 91 % 0 mm 0 W/m2
20:08 8.9 °C 7.5 °C 1014.4 hPa Calm     91 % 0 mm 0 W/m2
20:13 8.9 °C 7.5 °C 1014.4 hPa WNW 6.4 km/h 8 km/h 91 % 0 mm 0 W/m2
20:18 9.1 °C 7.7 °C 1014.1 hPa West 6.4 km/h 9.7 km/h 91 % 0 mm 0 W/m2
20:23 9.1 °C 7.7 °C 1014.1 hPa WNW 4.8 km/h 9.7 km/h 91 % 0 mm 0 W/m2
20:28 9 °C 7.4 °C 1014.4 hPa WNW 4.8 km/h 9.7 km/h 90 % 0 mm 0 W/m2
20:33 8.9 °C 7.3 °C 1014.4 hPa WNW 3.2 km/h 8 km/h 90 % 0 mm 0 W/m2
20:38 8.8 °C 7.2 °C 1014.4 hPa WNW 1.6 km/h 4.8 km/h 90 % 0 mm 0 W/m2
20:43 8.7 °C 7.2 °C 1014.1 hPa Calm   3.2 km/h 90 % 0 mm 0 W/m2
20:48 8.6 °C 7.1 °C 1014.1 hPa West 8 km/h 12.9 km/h 90 % 0 mm 0 W/m2
20:53 8.7 °C 7.3 °C 1014.1 hPa WNW 9.7 km/h 12.9 km/h 91 % 0 mm 0 W/m2
20:58 8.8 °C 7.6 °C 1014.1 hPa West 8 km/h 14.5 km/h 92 % 0 mm 0 W/m2
21:03 8.8 °C 7.6 °C 1014.1 hPa WNW 6.4 km/h 11.3 km/h 92 % 0 mm 0 W/m2
21:08 8.8 °C 7.6 °C 1014.1 hPa WNW 1.6 km/h 6.4 km/h 92 % 0 mm 0 W/m2
21:13 8.8 °C 7.4 °C 1014.1 hPa WNW 4.8 km/h 8 km/h 91 % 0 mm 0 W/m2
21:18 8.7 °C 7.5 °C 1014.1 hPa WNW 9.7 km/h 14.5 km/h 92 % 0 mm 0 W/m2
21:23 8.9 °C 7.7 °C 1013.8 hPa WNW 11.3 km/h 16.1 km/h 92 % 0 mm 0 W/m2
21:28 9 °C 7.8 °C 1013.8 hPa WNW 14.5 km/h 20.9 km/h 92 % 0 mm 0 W/m2
21:33 9.2 °C 7.9 °C 1013.8 hPa West 11.3 km/h 17.7 km/h 92 % 0 mm 0 W/m2
21:38 9.2 °C 7.9 °C 1013.8 hPa WNW 9.7 km/h 16.1 km/h 92 % 0 mm 0 W/m2
21:43 9.2 °C 7.8 °C 1013.8 hPa WNW 8 km/h 14.5 km/h 91 % 0 mm 0 W/m2
21:48 9.2 °C 7.8 °C 1013.8 hPa West 4.8 km/h 9.7 km/h 91 % 0 mm 0 W/m2
21:53 9.1 °C 7.7 °C 1013.8 hPa WNW 4.8 km/h 11.3 km/h 91 % 0 mm 0 W/m2
21:58 9.1 °C 7.7 °C 1013.8 hPa Calm   3.2 km/h 91 % 0 mm 0 W/m2
22:03 9 °C 7.6 °C 1013.8 hPa Calm   3.2 km/h 91 % 0 mm 0 W/m2
22:08 8.9 °C 7.5 °C 1013.8 hPa Calm   3.2 km/h 91 % 0 mm 0 W/m2
22:13 8.8 °C 7.4 °C 1013.8 hPa WSW 3.2 km/h 9.7 km/h 91 % 0 mm 0 W/m2
22:18 8.8 °C 7.4 °C 1013.8 hPa West 3.2 km/h 6.4 km/h 91 % 0 mm 0 W/m2
22:23 8.8 °C 7.4 °C 1013.8 hPa West 6.4 km/h 11.3 km/h 91 % 0 mm 0 W/m2
22:28 8.8 °C 7.4 °C 1013.8 hPa West 6.4 km/h 11.3 km/h 91 % 0 mm 0 W/m2
22:33 8.8 °C 7.4 °C 1013.8 hPa West 9.7 km/h 17.7 km/h 91 % 0 mm 0 W/m2
22:38 8.9 °C 7.7 °C 1013.8 hPa West 11.3 km/h 17.7 km/h 92 % 0 mm 0 W/m2
22:43 9.1 °C 7.9 °C 1014.1 hPa West 11.3 km/h 19.3 km/h 92 % 0 mm 0 W/m2
22:48 9.2 °C 7.8 °C 1013.8 hPa WSW 6.4 km/h 11.3 km/h 91 % 0 mm 0 W/m2
22:53 9.3 °C 7.9 °C 1013.8 hPa SSW 8 km/h 11.3 km/h 91 % 0 mm 0 W/m2
22:58 9.3 °C 7.9 °C 1013.8 hPa SSW 4.8 km/h 11.3 km/h 91 % 0 mm 0 W/m2
23:03 9.4 °C 8 °C 1013.8 hPa South 1.6 km/h 9.7 km/h 91 % 0 mm 0 W/m2
23:08 9.4 °C 8 °C 1013.8 hPa South 1.6 km/h 3.2 km/h 91 % 0 mm 0 W/m2
23:13 9.5 °C 8.1 °C 1013.8 hPa SW 6.4 km/h 12.9 km/h 91 % 0 mm 0 W/m2
23:18 9.6 °C 8.2 °C 1013.8 hPa SSW 8 km/h 11.3 km/h 91 % 0 mm 0 W/m2
23:23 9.6 °C 8.2 °C 1013.8 hPa SSW 3.2 km/h 8 km/h 91 % 0 mm 0 W/m2
23:29 9.6 °C 8.2 °C 1013.8 hPa Calm   3.2 km/h 91 % 0 mm 0 W/m2
23:34 9.4 °C 8 °C 1013.4 hPa SSW 3.2 km/h 8 km/h 91 % 0 mm 0 W/m2
23:39 9.4 °C 8 °C 1013.4 hPa SSW 4.8 km/h 8 km/h 91 % 0 mm 0 W/m2
23:44 9.3 °C 7.9 °C 1013.4 hPa SSW 1.6 km/h 6.4 km/h 91 % 0 mm 0 W/m2
23:49 9.3 °C 7.9 °C 1013.4 hPa SSW 3.2 km/h 8 km/h 91 % 0 mm 0 W/m2
23:54 9.4 °C 8.2 °C 1013.4 hPa SW 6.4 km/h 11.3 km/h 92 % 0 mm 0 W/m2
23:59 9.5 °C 8.3 °C 1013.4 hPa SW 6.4 km/h 9.7 km/h 92 % 0 mm 0 W/m2
Delerius-Weather
Compliments of Weather Underground - 2.25 mb

Data updates at regular intervals.